Regional Weather Roundup
Issued by NWS Lake Charles, LA

Home | Current Version | Previous Version | Text Only | Print | Product List | Glossary On
Versions: 1 2 3 4 5 6 7 8 9 10 11 12 13 14 15 16 17 18 19 20 21 22 23 24 25 26 27 28 29 30 31 32 33 34 35 36 37 38 39 40 41 42 43 44 45 46 47 48 49 50
000
ASUS44 KLCH 270810
RWRLCH
REGIONAL WEATHER ROUNDUP
NATIONAL WEATHER SERVICE LAKE CHARLES LA
300 AM CDT WED JUL 27 2016

Note: "fair" indicates few or no clouds below 12,000 feet with no
significant weather and/or obstructions to visibility.


ACROSS SOUTHEAST TEXAS

CITY           SKY/WX    TMP DP  RH WIND       PRES   REMARKS
BEAUMONT       PTCLDY    76  74  93 CALM      29.92F
BEAUMONT CITY  FAIR      77  74  91 CALM      29.93F
ORANGE         PTSUNNY   76  73  93 CALM      29.95S
JASPER         CLOUDY    75  73  94 CALM      29.95F
$$

ACROSS CENTRAL LOUISIANA

CITY           SKY/WX    TMP DP  RH WIND       PRES   REMARKS
LEESVILLE      CLOUDY    76  74  96 SW5       29.92S
FULLERTON      FAIR      74  72  93 CALM      29.90S
ALEXANDRIA INT CLOUDY    73  73 100 SE3       29.90F FOG
ESLER FIELD    CLOUDY    75  75 100 CALM      29.92S
DERIDDER       FAIR      76  75  96 SW5       29.94F
OAKDALE        MOSUNNY   75  74  98 CALM      29.92S
OPELOUSAS      FAIR      75  74  96 SE3       29.93S
$$

ACROSS SOUTHWEST AND SOUTH CENTRAL LOUISIANA

CITY           SKY/WX    TMP DP  RH WIND       PRES   REMARKS
SULPHUR        MOSUNNY   80  76  90 CALM      29.93F
LAKE CHARLES   CLOUDY    80  76  87 W3        29.92F
CHENNAULT INT  CLOUDY    81  75  83 W6        29.93S
CAMERON PHI    CLOUDY    77  73  88 W9G30     29.93R HAZE
DEQUINCY       FAIR      76  75  96 CALM      29.93F
JENNINGS       FAIR      77  75  94 S3        29.93F
LAFAYETTE      RAIN      77  74  90 S5        29.94S FOG
NEW IBERIA     CLOUDY    77  74  90 S6        29.95S
ABBEVILLE      CLOUDY    76  76  98 S7        29.95R
PATTERSON      LGT RAIN  74  72  93 SE3       29.96F
SALT POINT       N/A     83  76  79 VRB5      29.93F
$$

SELECTED SITES ACROSS THE REGION

CITY           SKY/WX    TMP DP  RH WIND       PRES   REMARKS
HOUSTON BUSH   MOCLDY    78  73  84 CALM      29.93S
HOUSTON HOBBY  MOCLDY    77  75  93 CALM      29.92S
GALVESTON      CLOUDY    83  80  91 S13       29.92F
COLLEGE STAT   CLEAR     76  73  91 CALM      29.92F
CONROE         CLEAR     74  73  97 CALM      29.93F
HUNTSVILLE     CLEAR     77  74  90 S3        29.93F
LUFKIN         PTCLDY    75  74  96 CALM      29.92S FOG
SHREVEPORT     PTCLDY    77  74  90 SE3       29.91S
MONROE         CLOUDY    76  75  97 CALM      29.93S
NATCHEZ MS     CLOUDY    75  73  94 S6        29.92F
BATON ROUGE    MOCLDY    77  73  87 S9        29.94F
N.O. INTL ARPT MOCLDY    80  74  81 S7        29.96F
SLIDELL        CLOUDY    79  74  84 S5        29.96F
$$

MARINE REPORTS

STATION/POSITION TIME  SKY/WX   TEMP    WIND        PRES    VSBY
                                AIR SEA DIR/SP/G
                 (UTC)          (F)     (DEG/KT/KT) (MB)    (MI)
BUOY 30 S HIGH I 0750            85 86  210/ 14/ 16 1012.9F
WVE H/P(F/S)=  2/ 6

SEA RIM ST PARK  0800            83     230/ 10/ 12 1013.8F
PORT ARTHUR      0700               89  230/  6/  8 1013.6F
SABINE PASS N    0700            81 88  220/  1/  3 1014.9F
TEXAS POINT      NOT AVBL
CALCASIEU PASS   0700            84 87  250/ 11/ 16 1012.7F
LK CHARLES BEACH 0700            81 87              1014.1F
MARSH ISLAND     0700            87                   N/A
FRESH WATER LOCK 0700            74 87  260/  7/ 11 1014.7F
AMERADA PASS     0700            82 83  180/  3/  7 1014.3F
$$



USA.gov is the U.S. government's official web portal to all federal, state and local government web resources and services.